[[{"header":{"parameterUnit":"m.s-1","parameterCategory":1,"la1":30.2991,"la2":30.254,"lo1":-89.0895,"lo2":-89.0444,"dy":0.0017,"dx":0.0017,"nx":28,"ny":28,"refTime":"2025-03-11T03:00:00:Z","depth":0,"parameterNumber":2,"parameterNumberName":"U-component_of_WINDS"},"data":[0,0,0,0,0,0,0,0,0,0,0,0,0,0,0,0,0,0,0,0,0,0,0,0,0,0,0,0,0,0,0,0,0,0,0,0,0,0,0,0,0,0,0,0,0,0,0,0,0,0,0,0,0,0,0,0,0,0,1.9386,1.9386,0,1.9422,1.9423,1.9423,1.9392,1.9391,1.9389,1.9388,1.9426,1.9428,1.943,0,0,0,0,0,0,0,0,0,0,0,0,0,1.929,1.9292,1.9386,1.9386,1.9387,1.9422,1.9423,1.9423,1.9392,1.9391,1.9389,1.9388,1.9425,1.9428,1.943,0,0,0,0,0,0,0,0,0,0,0,0,0,1.933,1.9293,1.9386,1.9376,1.9375,1.9422,1.9423,1.9423,1.9392,1.9391,1.9389,1.9387,1.9424,1.9427,1.9431,1.949,0,0,1.9441,1.9442,0,0,0,0,0,0,0,0,1.9327,1.9333,1.9377,1.9376,1.9376,1.9401,1.9403,1.9446,1.9393,1.9386,1.9388,1.9386,1.9419,1.9423,1.9434,1.9492,1.9493,1.9441,1.9443,1.9445,1.9446,0,0,0,0,0,0,0,1.9325,1.9331,1.94,1.9377,1.9377,1.9369,1.9373,1.9411,1.9413,1.9386,1.9384,1.9389,1.9418,1.9431,1.9434,1.9494,1.9441,1.9444,1.9446,1.9447,1.9603,1.9605,0,0,0,0,0,0,1.9323,1.9329,1.9399,1.9401,1.9346,1.9373,1.9376,1.9395,1.9412,1.9413,1.9391,1.9387,1.9426,1.9431,1.9436,1.9507,1.9445,1.9448,1.945,1.9601,1.9604,1.9606,0,0,0,0,0,0,1.9321,1.9329,1.9398,1.9365,1.9373,1.9376,1.9397,1.9396,1.9409,1.9416,1.9416,1.9403,1.9425,1.9431,1.9477,1.9508,1.9449,1.9452,1.9599,1.9602,1.9605,1.965,0,0,0,0,0,0,1.9318,1.9329,1.9352,1.9366,1.9375,1.9439,1.9399,1.9399,1.9414,1.941,1.9427,1.9428,1.9424,1.9472,1.948,1.9511,1.9455,1.9596,1.96,1.9604,1.9646,1.9654,1.9661,0,0,0,0,0,1.9315,1.9363,1.9353,1.9361,1.9403,1.944,1.9446,1.944,1.9417,1.944,1.9444,1.9427,1.9503,1.9477,1.9486,1.9519,1.9594,1.9599,1.9603,1.9642,1.9652,1.9661,0,0,0,0,0,0,1.9352,1.9364,1.9354,1.9407,1.9423,1.9435,1.9464,1.9451,1.9473,1.9469,1.9461,1.9465,1.9513,1.952,1.9491,1.9577,1.9545,1.9552,1.9571,1.9581,1.9589,1.9587,1.9458,0,0,0,0,0,1.9367,1.9396,1.9405,1.9451,1.946,1.946,1.9476,1.947,1.9486,1.9493,1.9501,1.9517,1.9545,1.9563,1.9588,1.9646,1.965,1.9673,1.9681,1.9687,1.9694,1.9725,1.9736,1.9622,1.9622,1.9622,0,0,1.9397,1.9407,1.9426,1.9459,1.947,1.9501,1.9466,1.95,1.9523,1.9498,1.9542,1.9548,1.9566,1.9618,1.9642,1.9626,1.9726,1.9693,1.9698,1.9701,1.9731,1.9742,1.9752,1.9625,1.9625,1.9624,0,0,1.9468,1.9478,1.9518,1.9531,1.9548,1.9549,1.9558,1.9572,1.9575,1.9619,1.9602,1.9628,1.9676,1.9689,1.9703,1.9778,1.9764,1.9787,1.9829,1.986,1.9869,1.9877,1.9905,1.9915,1.9793,1.9793,1.9793,0,1.9503,1.9549,1.9541,1.9576,1.9591,1.957,1.9611,1.9623,1.9648,1.9659,1.9641,1.97,1.971,1.9766,1.9784,1.9795,1.9807,1.9786,1.9868,1.9876,1.9883,1.991,1.992,1.9796,1.9795,1.9795,1.9795,0,1.9592,1.9624,1.9654,1.9679,1.9697,1.9735,1.9733,1.9753,1.9745,1.9747,1.9792,1.9804,1.9832,1.9844,1.9837,1.9899,1.9888,1.9869,1.9837,1.9897,1.9922,1.9932,1.98,1.9799,1.9798,1.9797,0,0,1.9689,1.9708,1.972,1.9731,1.9749,1.9773,1.981,1.9837,1.9855,1.9873,1.9904,1.9944,1.9927,1.9942,1.9935,1.9962,2.0023,1.994,1.994,1.9956,2.0093,2.0108,2.012,2.0013,2.0015,2.0016,2.0091,0,1.9761,1.9825,1.9819,1.988,1.991,1.989,1.9922,1.9936,1.9939,1.9965,1.9968,1.9997,1.9971,1.998,2.0005,2.001,2.005,2.0004,2.0043,2.0044,2.004,2.0133,2.0149,2.0219,2.0101,2.0103,2.0104,0,1.9855,1.9876,1.994,1.9954,1.9966,1.9995,2.0019,2.0044,2.006,2.006,2.0077,2.0066,2.0103,2.0069,2.0121,2.009,2.0105,2.0109,2.0112,2.0116,2.0079,2.0141,2.0242,2.0253,2.0119,2.0118,2.0117,0,1.992,1.9965,2.0009,2.0019,2.0036,2.0057,2.0065,2.0079,2.0096,2.0117,2.0128,2.0153,2.0167,2.0187,2.0184,2.0159,2.0237,2.0202,2.0239,2.0239,2.0257,2.0256,2.0363,2.0265,2.0265,2.0265,2.0264,0,2.0002,2.0043,2.0039,2.0066,2.0111,2.0103,2.0147,2.0152,2.0165,2.0194,2.0177,2.0204,2.0197,2.0224,2.0221,2.0265,2.0271,2.0273,2.0272,2.0275,2.0275,2.0286,2.0281,2.0267,2.0267,2.0266,2.0266,0,2.0084,2.0082,2.0129,2.0141,2.0145,2.0178,2.0188,2.0214,2.0215,2.0251,2.0259,2.0261,2.0292,2.029,2.0324,2.0323,2.0377,2.037,2.0372,2.0371,2.0408,2.0405,2.0526,2.0542,2.0432,2.0433,2.0434,0,2.0137,2.0168,2.0183,2.02,2.021,2.0238,2.0255,2.0248,2.0267,2.0287,2.0311,2.034,2.0363,2.0413,2.0418,2.0444,2.0438,2.0479,2.0442,2.0445,2.044,2.0439,2.0442,2.0487,2.0488,2.0489,2.049,0,2.0232,2.023,2.0255,2.028,2.0301,2.032,2.0338,2.0353,2.0348,2.0369,2.0401,2.0418,2.0454,2.0483,2.0508,2.0516,2.0503,2.0501,2.0511,2.0515,2.0516,2.0517,2.0393,2.0499,2.0498,2.0497,2.0497,2.0496,2.0302,2.0329,2.0343,2.0372,2.0384,2.0401,2.0426,2.043,2.0456,2.0484,2.0478,2.0513,2.0529,2.0561,2.0572,2.0599,2.0585,2.0599,2.0603,2.0607,2.0612,2.051,2.0604,2.0603,2.0603,2.0603,2.0603,0,2.0398,2.0406,2.0432,2.0457,2.048,2.0464,2.0482,2.0502,2.0534,2.0549,2.0572,2.0608,2.0636,2.0643,2.067,2.0691,2.0685,2.0698,2.0697,2.07,2.0623,2.0612,2.0702,2.0702,2.0702,2.0702,2.0702,2.0702,2.045,2.0494,2.0494,2.0544,2.0552,2.0586,2.0598,2.0614,2.0626,2.0666,2.069,2.0694,2.0706,2.0734,2.0759,2.076,2.0772,2.0787,2.0786,2.0715,2.0705,2.0695,2.0685,2.079,2.079,2.0861,2.0862,2.0862]},{"header":{"parameterUnit":"m.s-1","parameterCategory":1,"la1":30.2991,"la2":30.254,"lo1":-89.0895,"lo2":-89.0444,"dy":0.0017,"dx":0.0017,"nx":28,"ny":28,"refTime":"2025-03-11T03:00:00:Z","depth":0,"parameterNumber":3,"parameterNumberName":"V-component_of_WINDS"},"data":[0,0,0,0,0,0,0,0,0,0,0,0,0,0,0,0,0,0,0,0,0,0,0,0,0,0,0,0,0,0,0,0,0,0,0,0,0,0,0,0,0,0,0,0,0,0,0,0,0,0,0,0,0,0,0,0,0,0,-0.7522,-0.7522,0,-0.7523,-0.7523,-0.7523,-0.7523,-0.7523,-0.7522,-0.7522,-0.7524,-0.7524,-0.7524,0,0,0,0,0,0,0,0,0,0,0,0,0,-0.7519,-0.7519,-0.7522,-0.7522,-0.7522,-0.7523,-0.7523,-0.7523,-0.7523,-0.7523,-0.7522,-0.7522,-0.7524,-0.7524,-0.7524,0,0,0,0,0,0,0,0,0,0,0,0,0,-0.752,-0.7519,-0.7522,-0.7522,-0.7522,-0.7523,-0.7523,-0.7523,-0.7523,-0.7523,-0.7522,-0.7522,-0.7524,-0.7524,-0.7524,-0.7526,0,0,-0.7524,-0.7525,0,0,0,0,0,0,0,0,-0.752,-0.752,-0.7522,-0.7522,-0.7522,-0.7523,-0.7523,-0.7524,-0.7523,-0.7522,-0.7522,-0.7522,-0.7524,-0.7524,-0.7524,-0.7526,-0.7526,-0.7524,-0.7525,-0.7525,-0.7525,0,0,0,0,0,0,0,-0.752,-0.752,-0.7522,-0.7522,-0.7522,-0.7522,-0.7522,-0.7523,-0.7523,-0.7522,-0.7522,-0.7522,-0.7524,-0.7524,-0.7524,-0.7526,-0.7524,-0.7525,-0.7525,-0.7525,-0.753,-0.753,0,0,0,0,0,0,-0.752,-0.752,-0.7522,-0.7522,-0.7521,-0.7522,-0.7522,-0.7522,-0.7523,-0.7523,-0.7522,-0.7522,-0.7524,-0.7524,-0.7524,-0.7526,-0.7525,-0.7525,-0.7525,-0.753,-0.753,-0.753,0,0,0,0,0,0,-0.752,-0.752,-0.7522,-0.7521,-0.7522,-0.7522,-0.7522,-0.7523,-0.7523,-0.7523,-0.7523,-0.7523,-0.7524,-0.7524,-0.7526,-0.7527,-0.7525,-0.7525,-0.753,-0.753,-0.753,-0.7531,0,0,0,0,0,0,-0.752,-0.752,-0.7521,-0.7521,-0.7522,-0.7524,-0.7523,-0.7523,-0.7523,-0.7523,-0.7524,-0.7524,-0.7524,-0.7525,-0.7526,-0.7527,-0.7525,-0.753,-0.753,-0.753,-0.7531,-0.7531,-0.7531,0,0,0,0,0,-0.752,-0.7521,-0.7521,-0.7521,-0.7522,-0.7524,-0.7524,-0.7524,-0.7523,-0.7524,-0.7524,-0.7524,-0.7526,-0.7526,-0.7526,-0.7527,-0.753,-0.753,-0.753,-0.7531,-0.7531,-0.7531,0,0,0,0,0,0,-0.752,-0.7521,-0.7521,-0.7522,-0.7523,-0.7524,-0.7524,-0.7524,-0.7525,-0.7525,-0.7525,-0.7525,-0.7527,-0.7527,-0.7526,-0.7529,-0.7528,-0.7528,-0.7528,-0.7529,-0.7529,-0.7529,-0.7525,0,0,0,0,0,-0.7521,-0.7522,-0.7522,-0.7524,-0.7524,-0.7524,-0.7525,-0.7525,-0.7525,-0.7525,-0.7526,-0.7527,-0.7528,-0.7528,-0.7529,-0.7531,-0.7531,-0.7532,-0.7532,-0.7532,-0.7532,-0.7534,-0.7534,-0.753,-0.753,-0.753,0,0,-0.7521,-0.7522,-0.7522,-0.7524,-0.7524,-0.7525,-0.7524,-0.7525,-0.7526,-0.7526,-0.7527,-0.7527,-0.7528,-0.753,-0.7531,-0.753,-0.7533,-0.7533,-0.7533,-0.7533,-0.7534,-0.7534,-0.7534,-0.7531,-0.7531,-0.7531,0,0,-0.7523,-0.7524,-0.7525,-0.7525,-0.7526,-0.7526,-0.7527,-0.7527,-0.7528,-0.7529,-0.7529,-0.753,-0.7531,-0.7532,-0.7533,-0.7535,-0.7535,-0.7535,-0.7536,-0.7538,-0.7538,-0.7538,-0.7539,-0.7539,-0.7535,-0.7535,-0.7535,0,-0.7524,-0.7526,-0.7526,-0.7527,-0.7527,-0.7527,-0.7528,-0.7529,-0.753,-0.753,-0.753,-0.7532,-0.7533,-0.7534,-0.7535,-0.7535,-0.7536,-0.7535,-0.7538,-0.7538,-0.7538,-0.7539,-0.7539,-0.7536,-0.7536,-0.7536,-0.7536,0,-0.7527,-0.7528,-0.7529,-0.753,-0.753,-0.7531,-0.7532,-0.7532,-0.7532,-0.7533,-0.7534,-0.7535,-0.7536,-0.7537,-0.7536,-0.7538,-0.7538,-0.7538,-0.7537,-0.7539,-0.7539,-0.754,-0.7536,-0.7536,-0.7536,-0.7536,0,0,-0.7529,-0.753,-0.753,-0.7531,-0.7532,-0.7533,-0.7534,-0.7535,-0.7536,-0.7536,-0.7537,-0.7539,-0.7539,-0.7539,-0.7539,-0.754,-0.7542,-0.754,-0.754,-0.754,-0.7544,-0.7545,-0.7545,-0.7542,-0.7542,-0.7542,-0.7544,0,-0.7531,-0.7533,-0.7533,-0.7535,-0.7536,-0.7536,-0.7537,-0.7538,-0.7538,-0.7539,-0.7539,-0.7541,-0.754,-0.754,-0.7541,-0.7542,-0.7543,-0.7542,-0.7543,-0.7543,-0.7543,-0.7546,-0.7546,-0.7548,-0.7545,-0.7545,-0.7545,0,-0.7533,-0.7534,-0.7536,-0.7537,-0.7537,-0.7538,-0.754,-0.754,-0.7541,-0.7542,-0.7542,-0.7542,-0.7544,-0.7543,-0.7545,-0.7544,-0.7545,-0.7545,-0.7545,-0.7545,-0.7544,-0.7546,-0.7549,-0.7549,-0.7545,-0.7545,-0.7545,0,-0.7535,-0.7536,-0.7538,-0.7538,-0.7539,-0.754,-0.7541,-0.7541,-0.7542,-0.7543,-0.7544,-0.7545,-0.7545,-0.7546,-0.7547,-0.7546,-0.7549,-0.7548,-0.7549,-0.7549,-0.7549,-0.7549,-0.7552,-0.755,-0.755,-0.755,-0.755,0,-0.7537,-0.7538,-0.7538,-0.7539,-0.7541,-0.7541,-0.7543,-0.7543,-0.7544,-0.7545,-0.7545,-0.7546,-0.7546,-0.7547,-0.7548,-0.7549,-0.755,-0.755,-0.755,-0.755,-0.755,-0.755,-0.755,-0.755,-0.755,-0.755,-0.755,0,-0.7538,-0.7539,-0.754,-0.7541,-0.7542,-0.7543,-0.7543,-0.7544,-0.7545,-0.7546,-0.7547,-0.7547,-0.7548,-0.7549,-0.7551,-0.7551,-0.7553,-0.7553,-0.7552,-0.7552,-0.7553,-0.7553,-0.7557,-0.7557,-0.7555,-0.7555,-0.7555,0,-0.754,-0.7541,-0.7542,-0.7542,-0.7543,-0.7544,-0.7545,-0.7545,-0.7546,-0.7547,-0.7548,-0.7549,-0.755,-0.7552,-0.7553,-0.7554,-0.7554,-0.7555,-0.7554,-0.7554,-0.7554,-0.7554,-0.7554,-0.7556,-0.7556,-0.7556,-0.7556,0,-0.7542,-0.7542,-0.7543,-0.7544,-0.7545,-0.7546,-0.7547,-0.7548,-0.7548,-0.7549,-0.755,-0.7551,-0.7553,-0.7554,-0.7555,-0.7556,-0.7556,-0.7556,-0.7556,-0.7556,-0.7556,-0.7556,-0.7553,-0.7556,-0.7556,-0.7556,-0.7556,-0.7556,-0.7543,-0.7544,-0.7545,-0.7546,-0.7547,-0.7548,-0.7549,-0.7549,-0.7551,-0.7552,-0.7552,-0.7554,-0.7555,-0.7556,-0.7557,-0.7558,-0.7558,-0.7558,-0.7559,-0.7559,-0.7559,-0.7556,-0.7559,-0.7559,-0.7559,-0.7559,-0.7559,0,-0.7546,-0.7546,-0.7547,-0.7549,-0.755,-0.7549,-0.755,-0.7551,-0.7553,-0.7554,-0.7555,-0.7556,-0.7558,-0.7558,-0.756,-0.7561,-0.7561,-0.7561,-0.7561,-0.7561,-0.7559,-0.7559,-0.7561,-0.7561,-0.7561,-0.7561,-0.7561,-0.7561,-0.7547,-0.7548,-0.7549,-0.7551,-0.7551,-0.7553,-0.7553,-0.7554,-0.7555,-0.7557,-0.7558,-0.7558,-0.7559,-0.7561,-0.7562,-0.7562,-0.7563,-0.7563,-0.7563,-0.7561,-0.7561,-0.7561,-0.756,-0.7563,-0.7563,-0.7565,-0.7565,-0.7565]}]]